TimeCDT,TemperatureF,Dew PointF,Humidity,Sea Level PressureIn,VisibilityMPH,Wind Direction,Wind SpeedMPH,Gust SpeedMPH,PrecipitationIn,Events,Conditions,WindDirDegrees,DateUTC
12:15 AM,43.9,41.0,90,30.22,10.0,WNW,3.5,-,N/A,,Clear,290,2013-04-05 05:15:00
12:35 AM,43.0,40.3,90,30.22,10.0,Calm,Calm,-,N/A,,Clear,0,2013-04-05 05:35:00
12:55 AM,41.4,39.2,92,30.21,10.0,Calm,Calm,-,N/A,,Clear,0,2013-04-05 05:55:00
1:15 AM,40.6,39.0,94,30.22,10.0,Calm,Calm,-,N/A,,Clear,0,2013-04-05 06:15:00
1:35 AM,39.6,37.9,94,30.21,10.0,Calm,Calm,-,N/A,,Clear,0,2013-04-05 06:35:00
1:55 AM,39.4,38.3,96,30.21,10.0,Calm,Calm,-,N/A,,Clear,0,2013-04-05 06:55:00
2:15 AM,39.7,38.5,95,30.21,10.0,Calm,Calm,-,N/A,,Clear,0,2013-04-05 07:15:00
2:35 AM,38.3,36.9,95,30.21,10.0,Calm,Calm,-,N/A,,Clear,0,2013-04-05 07:35:00
2:55 AM,38.1,36.7,95,30.20,10.0,Calm,Calm,-,N/A,,Clear,0,2013-04-05 07:55:00
3:15 AM,37.6,36.5,96,30.20,10.0,Calm,Calm,-,N/A,,Clear,0,2013-04-05 08:15:00
3:35 AM,39.2,37.9,95,30.20,10.0,Calm,Calm,-,N/A,,Clear,0,2013-04-05 08:35:00
3:55 AM,37.2,36.0,95,30.20,10.0,Calm,Calm,-,N/A,,Clear,0,2013-04-05 08:55:00
4:15 AM,36.5,35.4,96,30.21,7.0,Calm,Calm,-,N/A,,Clear,0,2013-04-05 09:15:00
4:35 AM,37.8,36.9,97,30.22,10.0,Calm,Calm,-,N/A,,Clear,0,2013-04-05 09:35:00
4:55 AM,37.0,36.0,96,30.22,7.0,Calm,Calm,-,N/A,,Clear,0,2013-04-05 09:55:00
5:15 AM,36.9,36.0,97,30.23,10.0,NW,3.5,-,N/A,,Clear,310,2013-04-05 10:15:00
5:35 AM,37.6,36.7,97,30.23,10.0,Calm,Calm,-,N/A,,Clear,0,2013-04-05 10:35:00
5:55 AM,38.3,37.2,96,30.23,10.0,NW,4.6,-,N/A,,Clear,310,2013-04-05 10:55:00
6:15 AM,37.9,36.9,96,30.23,7.0,Calm,Calm,-,N/A,,Clear,0,2013-04-05 11:15:00
6:35 AM,36.9,36.0,97,30.22,5.0,Calm,Calm,-,N/A,,Clear,0,2013-04-05 11:35:00
6:55 AM,36.1,35.1,96,30.22,5.0,Calm,Calm,-,N/A,,Clear,0,2013-04-05 11:55:00
7:15 AM,37.6,36.7,97,30.23,7.0,WNW,4.6,-,N/A,,Clear,300,2013-04-05 12:15:00
7:35 AM,37.4,36.5,97,30.23,5.0,NW,3.5,-,N/A,,Clear,310,2013-04-05 12:35:00
7:55 AM,39.7,38.8,97,30.24,5.0,WNW,3.5,-,N/A,,Clear,300,2013-04-05 12:55:00
8:15 AM,40.5,39.4,96,30.26,7.0,West,3.5,-,N/A,,Clear,270,2013-04-05 13:15:00
8:35 AM,41.4,40.1,95,30.26,10.0,NW,3.5,-,N/A,,Clear,310,2013-04-05 13:35:00
8:55 AM,42.6,40.6,93,30.26,10.0,Calm,Calm,-,N/A,,Clear,0,2013-04-05 13:55:00
9:15 AM,45.1,41.2,86,30.27,10.0,NW,4.6,-,N/A,,Clear,320,2013-04-05 14:15:00
9:35 AM,47.1,41.9,82,30.28,10.0,Calm,Calm,-,N/A,,Clear,0,2013-04-05 14:35:00
9:55 AM,49.8,42.6,76,30.28,10.0,Calm,Calm,-,N/A,,Clear,0,2013-04-05 14:55:00
10:15 AM,52.0,42.6,70,30.27,10.0,North,3.5,-,N/A,,Clear,360,2013-04-05 15:15:00
10:35 AM,53.2,42.4,67,30.27,10.0,Calm,Calm,-,N/A,,Clear,0,2013-04-05 15:35:00
10:55 AM,55.0,42.4,63,30.26,10.0,Calm,Calm,-,N/A,,Clear,0,2013-04-05 15:55:00
11:15 AM,57.2,42.4,58,30.26,10.0,NW,3.5,-,N/A,,Clear,310,2013-04-05 16:15:00
11:35 AM,58.5,42.8,56,30.26,10.0,Calm,Calm,-,N/A,,Clear,0,2013-04-05 16:35:00
11:55 AM,60.4,43.7,54,30.25,10.0,NNW,3.5,-,N/A,,Clear,340,2013-04-05 16:55:00
12:15 PM,62.1,43.0,50,30.25,10.0,ENE,3.5,-,N/A,,Clear,60,2013-04-05 17:15:00
12:35 PM,62.6,42.4,48,30.24,10.0,East,5.8,-,N/A,,Clear,80,2013-04-05 17:35:00
12:55 PM,64.6,44.1,47,30.23,10.0,West,3.5,-,N/A,,Clear,270,2013-04-05 17:55:00
1:15 PM,64.6,42.6,45,30.23,10.0,Calm,Calm,-,N/A,,Clear,0,2013-04-05 18:15:00
1:35 PM,65.7,43.7,45,30.22,10.0,WSW,6.9,-,N/A,,Clear,250,2013-04-05 18:35:00
1:55 PM,65.7,43.5,45,30.20,10.0,Calm,Calm,-,N/A,,Clear,0,2013-04-05 18:55:00
2:15 PM,67.5,43.9,43,30.19,10.0,SW,4.6,-,N/A,,Clear,220,2013-04-05 19:15:00
2:35 PM,66.7,43.2,42,30.18,10.0,SW,3.5,-,N/A,,Clear,220,2013-04-05 19:35:00
2:55 PM,67.8,43.7,42,30.17,10.0,SSW,3.5,-,N/A,,Clear,210,2013-04-05 19:55:00
3:15 PM,68.2,44.2,42,30.16,5.0,WSW,4.6,-,N/A,,Haze,240,2013-04-05 20:15:00
3:35 PM,68.0,43.9,42,30.15,10.0,Calm,Calm,-,N/A,,Clear,0,2013-04-05 20:35:00
3:55 PM,68.7,43.9,41,30.14,10.0,South,3.5,-,N/A,,Clear,180,2013-04-05 20:55:00
4:15 PM,69.1,44.4,41,30.14,10.0,WSW,4.6,-,N/A,,Clear,240,2013-04-05 21:15:00
4:35 PM,69.1,43.9,40,30.13,10.0,SW,3.5,-,N/A,,Clear,220,2013-04-05 21:35:00
4:55 PM,69.1,44.2,41,30.12,10.0,South,5.8,-,N/A,,Clear,180,2013-04-05 21:55:00
5:15 PM,68.9,43.7,40,30.12,10.0,WSW,4.6,-,N/A,,Clear,250,2013-04-05 22:15:00
5:35 PM,68.4,43.5,41,30.12,10.0,South,3.5,-,N/A,,Clear,180,2013-04-05 22:35:00
5:55 PM,68.5,44.1,41,30.11,10.0,Calm,Calm,-,N/A,,Clear,0,2013-04-05 22:55:00
6:15 PM,68.2,44.6,43,30.10,10.0,East,3.5,-,N/A,,Clear,90,2013-04-05 23:15:00
6:35 PM,67.5,45.3,45,30.10,10.0,Calm,Calm,-,N/A,,Clear,0,2013-04-05 23:35:00
6:55 PM,67.8,45.3,44,30.10,10.0,Calm,Calm,-,N/A,,Clear,0,2013-04-05 23:55:00
7:15 PM,67.3,46.6,47,30.11,10.0,Calm,Calm,-,N/A,,Clear,0,2013-04-06 00:15:00
7:35 PM,65.8,47.3,51,30.11,10.0,SSE,3.5,-,N/A,,Clear,160,2013-04-06 00:35:00
7:55 PM,64.4,47.3,54,30.11,10.0,Calm,Calm,-,N/A,,Clear,0,2013-04-06 00:55:00
8:15 PM,62.1,48.2,60,30.11,10.0,Calm,Calm,-,N/A,,Clear,0,2013-04-06 01:15:00
8:35 PM,57.6,50.7,78,30.11,10.0,Calm,Calm,-,N/A,,Clear,0,2013-04-06 01:35:00
8:55 PM,56.8,50.5,79,30.11,10.0,Calm,Calm,-,N/A,,Clear,0,2013-04-06 01:55:00
9:15 PM,55.9,50.2,81,30.11,10.0,Calm,Calm,-,N/A,,Clear,0,2013-04-06 02:15:00
9:35 PM,57.2,48.6,73,30.11,10.0,SE,3.5,-,N/A,,Clear,140,2013-04-06 02:35:00
9:55 PM,55.2,48.7,79,30.12,10.0,Calm,Calm,-,N/A,,Clear,0,2013-04-06 02:55:00
10:15 PM,57.4,47.8,70,30.13,10.0,Calm,Calm,-,N/A,,Clear,0,2013-04-06 03:15:00
10:35 PM,53.1,49.1,86,30.12,10.0,ESE,3.5,-,N/A,,Clear,120,2013-04-06 03:35:00
10:55 PM,54.5,49.5,83,30.11,10.0,Calm,Calm,-,N/A,,Clear,0,2013-04-06 03:55:00
11:15 PM,56.5,47.7,72,30.11,10.0,Calm,Calm,-,N/A,,Clear,0,2013-04-06 04:15:00
11:35 PM,56.8,47.5,71,30.11,10.0,Calm,Calm,-,N/A,,Clear,0,2013-04-06 04:35:00
11:55 PM,56.1,47.5,73,30.11,10.0,Calm,Calm,-,N/A,,Clear,0,2013-04-06 04:55:00